sat.trackr.live / text

‹ back to catalog

STARLINK-3286

NORAD 50171 · 2021-125R

PAYLOAD ACTIVE UNKNOWN

§ Identity

Operator
Country
US
Launch date
2021-12-18
Launch site
AFWTR
Launch vehicle
Mass (kg)
RCS (m²)

Purposes: comms

External: N2YO · Heavens-Above · Gunter

§ Orbital elements

Epoch: 2026-05-25T00:37:27.336576Z

Period
95.44 min
Inclination
53.2158°
Eccentricity
0.0001325
Mean motion
15.08833279 rev/d
Perigee alt
538.8 km
Apogee alt
540.7 km
Semi-major
6,917.9 km
B*
-7.4787e-6
RAAN
266.4324°
Arg perigee
103.0913°
Mean anomaly
257.0227°
Rev number
24,812

§ Raw data

STARLINK-32861 50171U 21125R   26145.02601084 -.00000407  00000+0 -74787-5 0  99942 50171  53.2158 266.4324 0001325 103.0913 257.0227 15.08833279248123

JSON: /api/v1/satellites/50171 · /tle

For live sub-satellite position, see the globe view (requires WebGL).

§ Visibility from observer

Set your observer location to see the next 7 days of passes ≥ 10°. The values pass through the URL so the page stays shareable.

No JS? Fill the form by hand. The geolocation button needs JavaScript.